Des Moines, IA

7:22 PM CDT on October 21, 2017 (GMT -0500)
Des Moines International

Weather History for KDSM - June, 2013

Change the Weather History Date:

Friday, June 21, 2013

  Actual Average Record
Temperature  
Mean Temperature 84 °F 74 °F  
Max Temperature 90 °F 83 °F 103 °F (1988)
Min Temperature 77 °F 64 °F 46 °F (1992)
Degree Days  
Heating Degree Days 0 0  
Month to date heating degree days 19 14  
Since 1 June heating degree days 19 14  
Since 1 July heating degree days 6021 6199  
Cooling Degree Days 19 9  
Month to date cooling degree days 138 132  
Year to date cooling degree days 240 208  
Since 1 June cooling degree days 138 132  
Growing Degree Days 34 (Base 50)    
Moisture  
Dew Point 70 °F    
Average Humidity 69    
Maximum Humidity 79    
Minimum Humidity 59    
Precipitation  
Precipitation 0.06 in 0.17 in 1.61 in (1947)
Month to date precipitation 2.35 3.46  
Year to date precipitation 20.66 16.64  
Snow  
Snow 0.00 in 0.00 in - ()
Month to date snowfall 0.0 0.0  
Since 1 June snowfall 0.0 0.0  
Since 1 July snowfall 55.2 35.3  
Snow Depth 0.00 in    
Sea Level Pressure  
Sea Level Pressure 29.90 in    
Wind  
Wind Speed 14 mph (South)    
Max Wind Speed 25 mph    
Max Gust Speed 32 mph    
Visibility 10 miles    
Events Rain , Thunderstorm    
T = Trace of Precipitation, MM = Missing Value Source: NWS Daily Summary

Daily Weather History Graph

Daily Weather History Graph

Search for Another Location

Airport or City:

Trip Planner

Search our weather history database for the weather conditions in past years. The results will help you decide how hot, cold, wet, or windy it might be!

Date:

Astronomy

Jun. 21, 2013 Rise Set
Actual Time 5:40 AM CDT 8:52 PM CDT
Civil Twilight 5:06 AM CDT 9:26 PM CDT
Nautical Twilight 4:22 AM CDT 10:10 PM CDT
Astronomical Twilight 3:30 AM CDT 11:02 PM CDT
Moon 7:02 PM CDT (6/21) 3:58 AM CDT (6/21)
Length of Visible Light 16h 19m
Length of Day
15h 11m
Waxing Gibbous, 95% of the Moon is Illuminated
Jun 21
Waxing Gibbous
Jun 23
Full
Jun 29
Last Quarter
Jul 8
New
Jul 15
First Quarter

Hourly Weather History & Observations

Time (CDT) Temp. Heat Index Dew Point Humidity Pressure Visibility Wind Dir Wind Speed Gust Speed Precip Events Conditions
12:54 AM 77.0 °F - 66.0 °F 69% 29.92 in 10.0 mi South 12.7 mph - N/A   Clear
1:54 AM 78.1 °F - 66.0 °F 66% 29.90 in 10.0 mi South 16.1 mph - N/A   Partly Cloudy
2:54 AM 77.0 °F - 66.9 °F 71% 29.88 in 10.0 mi South 11.5 mph - N/A   Clear
3:54 AM 77.0 °F - 66.9 °F 71% 29.85 in 10.0 mi South 15.0 mph - N/A   Partly Cloudy
4:54 AM 78.1 °F - 68.0 °F 71% 29.90 in 10.0 mi South 11.5 mph - N/A   Overcast
5:54 AM 77.0 °F - 68.0 °F 74% 29.90 in 10.0 mi South 11.5 mph - N/A   Mostly Cloudy
6:54 AM 77.0 °F - 69.1 °F 76% 29.89 in 10.0 mi SSW 15.0 mph - N/A   Overcast
7:54 AM 78.1 °F - 69.1 °F 74% 29.87 in 10.0 mi SSW 15.0 mph 20.7 mph N/A   Overcast
8:54 AM 80.1 °F 83.2 °F 70.0 °F 71% 29.87 in 10.0 mi SSW 15.0 mph 25.3 mph N/A   Overcast
9:54 AM 82.9 °F 87.0 °F 70.0 °F 65% 29.91 in 10.0 mi SW 16.1 mph - N/A   Overcast
10:54 AM 82.0 °F 86.3 °F 71.1 °F 69% 29.96 in 10.0 mi ENE 4.6 mph - N/A   Overcast
11:12 AM 82.9 °F 87.5 °F 71.1 °F 67% 29.98 in 10.0 mi ENE 6.9 mph - N/A Thunderstorm Thunderstorm
11:54 AM 82.0 °F 86.3 °F 71.1 °F 69% 29.96 in 10.0 mi East 11.5 mph - N/A Thunderstorm Thunderstorm
12:26 PM 79.0 °F - 70.0 °F 74% 29.95 in 10.0 mi ESE 13.8 mph 26.5 mph 0.01 in Rain Light Rain
12:54 PM 81.0 °F 84.1 °F 69.1 °F 67% 29.94 in 10.0 mi ESE 13.8 mph 29.9 mph 0.01 in   Overcast
1:54 PM 81.0 °F 84.1 °F 69.1 °F 67% 29.94 in 10.0 mi SE 12.7 mph - N/A   Overcast
2:07 PM 80.1 °F 82.9 °F 69.1 °F 69% 29.98 in 10.0 mi SSE 17.3 mph - N/A Thunderstorm Thunderstorm
2:37 PM 78.1 °F - 70.0 °F 76% 29.96 in 10.0 mi SE 11.5 mph - 0.05 in   Overcast
2:54 PM 78.1 °F - 71.1 °F 79% 29.92 in 10.0 mi SSE 16.1 mph - 0.05 in   Overcast
3:54 PM 81.0 °F 85.2 °F 72.0 °F 74% 29.86 in 10.0 mi South 13.8 mph - N/A   Overcast
4:54 PM 89.1 °F 98.0 °F 73.9 °F 61% 29.83 in 10.0 mi SSW 25.3 mph 31.1 mph N/A   Mostly Cloudy
5:54 PM 90.0 °F 97.9 °F 73.0 °F 57% 29.83 in 10.0 mi SSW 18.4 mph 28.8 mph N/A   Mostly Cloudy
6:54 PM 89.1 °F 98.0 °F 73.9 °F 61% 29.85 in 10.0 mi South 12.7 mph - N/A   Mostly Cloudy
7:54 PM 87.1 °F 96.3 °F 75.0 °F 67% 29.86 in 10.0 mi South 9.2 mph - N/A   Partly Cloudy
8:54 PM 84.0 °F 91.2 °F 73.9 °F 72% 29.86 in 10.0 mi South 9.2 mph - N/A   Partly Cloudy
9:54 PM 82.9 °F 88.8 °F 73.0 °F 72% 29.88 in 10.0 mi South 10.4 mph - N/A   Partly Cloudy
10:54 PM 82.0 °F 86.7 °F 72.0 °F 71% 29.89 in 10.0 mi South 10.4 mph - N/A   Partly Cloudy
11:54 PM 82.0 °F 86.7 °F 72.0 °F 71% 29.87 in 10.0 mi South 15.0 mph - N/A   Clear